EW5980 Weather Reports


Display with metric or nautical units.
time (UTC)temp
F
wind
direction
speed
MPH
gust
MPH
rain 1hr
in
rain 24hr
in
rain mn
in
humidity
%
barometer
mb
20260901040100 83 0.0 0.0 0.00 0.00 0.00 71 1017.2
20260901034553 84 0.0 0.0 0.00 0.00 0.00 70 1017.2
20260901033054 84 0.0 0.0 0.00 0.00 0.00 69 1017.3
20260901031556 85 0.0 0.0 0.00 0.00 0.00 68 1017.3
20260901030058 85 0.0 0.0 0.00 0.00 0.00 67 1017.1
20260901024555 85 0.0 0.0 0.00 0.00 0.00 66 1017.0
20260901023056 86 0.0 0.0 0.00 0.00 0.00 66 1017.1
20260901021559 86 0.0 0.0 0.00 0.00 0.00 65 1017.1
20260901020115 87 0.0 0.0 0.00 0.00 0.00 64 1017.0
20260901014555 87 0.0 0.0 0.00 0.00 0.00 63 1016.8
20260901013052 88 0.0 0.0 0.00 0.00 0.00 62 1016.7
20260901011557 88 0.0 0.0 0.00 0.00 0.00 60 1016.4
20260901010052 89 0.0 0.0 0.00 0.00 0.00 59 1016.1
20260901004608 89 0.0 0.0 0.00 0.00 0.00 58 1016.1
20260901003055 90 0.0 0.0 0.00 0.00 0.00 56 1015.9
20260901001550 91 0.0 0.0 0.00 0.00 0.00 55 1015.9
20260901000104 91 0.0 0.0 0.00 0.00 0.00 55 1015.8
20260831234557 92 0.0 0.0 0.00 0.00 0.00 54 1015.8
20260831233055 92 0.0 0.0 0.00 0.00 0.00 54 1015.8
20260831231553 92 0.0 0.0 0.00 0.00 0.00 53 1015.9
20260831230047 93 0.0 0.0 0.00 0.00 0.00 53 1015.8
20260831224557 93 0.0 0.0 0.00 0.00 0.00 53 1015.9
20260831223056 93 0.0 0.0 0.00 0.00 0.00 52 1016.1
20260831221556 93 0.0 0.0 0.00 0.00 0.00 52 1016.1
20260831220056 93 0.0 0.0 0.00 0.00 0.00 51 1016.2
20260831214553 94 0.0 0.0 0.00 0.00 0.00 51 1016.1
20260831213100 95 0.0 0.0 0.00 0.00 0.00 49 1016.2
20260831211557 95 0.0 0.0 0.00 0.00 0.00 50 1016.2
20260831210051 95 0.0 0.0 0.00 0.00 0.00 50 1016.4
20260831204549 95 0.0 0.0 0.00 0.00 0.00 48 1016.4
20260831203054 95 0.0 0.0 0.00 0.00 0.00 49 1016.7
20260831201557 95 0.0 0.0 0.00 0.00 0.00 50 1017.0
20260831200047 95 0.0 0.0 0.00 0.00 0.00 50 1017.2
20260831194632 95 0.0 0.0 0.00 0.00 0.00 49 1017.4
20260831193055 96 0.0 0.0 0.00 0.00 0.00 50 1017.6
20260831191552 95 0.0 0.0 0.00 0.00 0.00 49 1017.6
20260831190118 96 0.0 0.0 0.00 0.00 0.00 51 1017.7
20260831184605 96 0.0 0.0 0.00 0.00 0.00 51 1017.9
20260831183058 95 0.0 0.0 0.00 0.00 0.00 50 1018.2
20260831181603 96 0.0 0.0 0.00 0.00 0.00 51 1018.2
20260831180058 94 0.0 0.0 0.00 0.00 0.00 53 1018.3
20260831174553 94 0.0 0.0 0.00 0.00 0.00 54 1018.7
20260831173055 95 0.0 0.0 0.00 0.00 0.00 53 1019.0
20260831171558 94 0.0 0.0 0.00 0.00 0.00 55 1019.2
20260831170058 94 0.0 0.0 0.00 0.00 0.00 56 1019.2
20260831164601 93 0.0 0.0 0.00 0.00 0.00 58 1019.3
20260831163057 93 0.0 0.0 0.00 0.00 0.00 59 1019.4
20260831161556 92 0.0 0.0 0.00 0.00 0.00 60 1019.4
20260831160050 91 0.0 0.0 0.00 0.00 0.00 62 1019.5
20260831154656 92 0.0 0.0 0.00 0.00 0.00 61 1019.5
20260831153052 91 0.0 0.0 0.00 0.00 0.00 62 1019.4
20260831151555 91 0.0 0.0 0.00 0.00 0.00 62 1019.4
20260831150052 90 0.0 0.0 0.00 0.00 0.00 63 1019.4
20260831144546 89 0.0 0.0 0.00 0.00 0.00 64 1019.4
20260831143111 88 0.0 0.0 0.00 0.00 0.00 66 1019.4
20260831141612 86 0.0 0.0 0.00 0.00 0.00 70 1019.4
20260831140047 85 0.0 0.0 0.00 0.00 0.00 74 1019.4
20260831134550 83 0.0 0.0 0.00 0.00 0.00 77 1019.4
20260831133055 82 0.0 0.0 0.00 0.00 0.00 77 1019.2
20260831131559 82 0.0 0.0 0.00 0.00 0.00 77 1019.2
20260831130054 80 0.0 0.0 0.00 0.00 0.00 70 1019.1
20260831124608 77 0.0 0.0 0.00 0.00 0.00 49 1019.1
20260831123054 76 0.0 0.0 0.00 0.00 0.00 48 1018.9
20260831121548 76 0.0 0.0 0.00 0.00 0.00 51 1018.7
20260831120047 75 0.0 0.0 0.00 0.00 0.00 54 1018.5
20260831114558 76 0.0 0.0 0.00 0.00 0.00 57 1018.2
20260831113055 76 0.0 0.0 0.00 0.00 0.00 58 1018.2
20260831111603 76 0.0 0.0 0.00 0.00 0.00 58 1018.0
20260831110059 76 0.0 0.0 0.00 0.00 0.00 61 1017.9
20260831104553 76 0.0 0.0 0.00 0.00 0.00 60 1017.7
20260831103048 76 0.0 0.0 0.00 0.00 0.00 61 1017.6
20260831101614 76 0.0 0.0 0.00 0.00 0.00 64 1017.5
20260831100110 76 0.0 0.0 0.00 0.00 0.00 66 1017.3
20260831094556 76 0.0 0.0 0.00 0.00 0.00 68 1017.1
20260831093054 77 0.0 0.0 0.00 0.00 0.00 70 1017.1
20260831091548 77 0.0 0.0 0.00 0.00 0.00 72 1017.1
20260831090107 77 0.0 0.0 0.00 0.00 0.00 74 1017.0
20260831084545 77 0.0 0.0 0.00 0.00 0.00 74 1017.1
20260831083048 77 0.0 0.0 0.00 0.00 0.00 75 1017.1
20260831081558 77 0.0 0.0 0.00 0.00 0.00 76 1017.1
20260831080059 78 0.0 0.0 0.00 0.00 0.00 77 1017.1
20260831074548 78 0.0 0.0 0.00 0.00 0.00 77 1017.3
20260831073052 78 0.0 0.0 0.00 0.00 0.00 78 1017.2
20260831071555 78 0.0 0.0 0.00 0.00 0.00 78 1017.2
20260831070054 78 0.0 0.0 0.00 0.00 0.00 78 1017.3
20260831064554 79 0.0 0.0 0.00 0.00 0.00 78 1017.5
20260831063059 79 0.0 0.0 0.00 0.00 0.00 78 1017.5
20260831061601 79 0.0 0.0 0.00 0.00 0.00 78 1017.6
20260831060106 79 0.0 0.0 0.00 0.00 0.00 78 1017.7
20260831054550 79 0.0 0.0 0.00 0.00 0.00 78 1017.5
20260831053054 80 0.0 0.0 0.00 0.00 0.00 77 1017.7
20260831051603 80 0.0 0.0 0.00 0.00 0.00 77 1017.4
20260831050059 80 0.0 0.0 0.00 0.00 0.00 76 1017.4
20260831044555 81 0.0 0.0 0.00 0.00 0.00 75 1017.5
20260831043051 81 0.0 0.0 0.00 0.00 0.00 75 1017.4
20260831041601 81 0.0 0.0 0.00 0.00 0.00 75 1017.4